Satellite: ASTRA 1B
Catalog number: 21139
Epoch time:      103041.00000000
Element set:     160 
Inclination:        0.0122 deg
RA of node:       319.8851 deg
Eccentricity:    0.0002995
Arg of perigee:    65.1991 deg
Mean anomaly:     133.7503 deg
Mean motion:    1.00273184 rev/day
Decay rate:    1.2900E-006 rev/day^2
Epoch rev:            3210
Checksum:              209

Satellite: METEOSAT 5 (MO
Catalog number: 21140
Epoch time:      103045.97157205
Element set:     720 
Inclination:        5.6210 deg
RA of node:        69.9735 deg
Eccentricity:    0.0002361
Arg of perigee:   151.6116 deg
Mean anomaly:     335.5401 deg
Mean motion:    1.00273296 rev/day
Decay rate:    2.2000E-007 rev/day^2
Epoch rev:            4601
Checksum:              240

Satellite: NOAA 12
Catalog number: 21263
Epoch time:      103047.02627607
Element set:     969 
Inclination:       98.6258 deg
RA of node:        36.6961 deg
Eccentricity:    0.0013578
Arg of perigee:    31.9811 deg
Mean anomaly:     328.2190 deg
Mean motion:   14.25080027 rev/day
Decay rate:    4.1500E-006 rev/day^2
Epoch rev:           61085
Checksum:              299

Satellite: OSCAR 22 (UoSA
Catalog number: 21575
Epoch time:      103046.51820133
Element set:     726 
Inclination:       98.1405 deg
RA of node:        38.7936 deg
Eccentricity:    0.0008056
Arg of perigee:   136.3461 deg
Mean anomaly:     223.8366 deg
Mean motion:   14.39152793 rev/day
Decay rate:    3.8799E-006 rev/day^2
Epoch rev:           60784
Checksum:              337

Satellite: METEOR 3-5
Catalog number: 21655
Epoch time:      103045.87562246
Element set:     499 
Inclination:       82.5540 deg
RA of node:        41.4674 deg
Eccentricity:    0.0012641
Arg of perigee:   204.3135 deg
Mean anomaly:     155.7393 deg
Mean motion:   13.16979796 rev/day
Decay rate:    5.1000E-007 rev/day^2
Epoch rev:           55299
Checksum:              326

Satellite: UARS
Catalog number: 21701
Epoch time:      103046.63602753
Element set:     825 
Inclination:       56.9822 deg
RA of node:        43.9229 deg
Eccentricity:    0.0004712
Arg of perigee:   115.4847 deg
Mean anomaly:     244.6693 deg
Mean motion:   15.02854298 rev/day
Decay rate:    1.0570E-005 rev/day^2
Epoch rev:           62527
Checksum:              410

Satellite: EUTELSAT 2-F3
Catalog number: 21803
Epoch time:      103042.92968172
Element set:     522 
Inclination:        2.5812 deg
RA of node:        89.1760 deg
Eccentricity:    0.0003183
Arg of perigee:   279.4172 deg
Mean anomaly:     129.1437 deg
Mean motion:    1.00276864 rev/day
Decay rate:    1.3600E-006 rev/day^2
Epoch rev:            3693
Checksum:              285

Satellite: INMARSAT 2-F3
Catalog number: 21814
Epoch time:      103046.53038381
Element set:     617 
Inclination:        1.7394 deg
RA of node:        57.8409 deg
Eccentricity:    0.0002822
Arg of perigee:   273.5004 deg
Mean anomaly:     222.7566 deg
Mean motion:    1.00276888 rev/day
Decay rate:    1.1199E-006 rev/day^2
Epoch rev:            4086
Checksum:              296

Satellite: INMARSAT 2-F4
Catalog number: 21940
Epoch time:      103044.69223701
Element set:     571 
Inclination:        2.3861 deg
RA of node:        19.3937 deg
Eccentricity:    0.0002023
Arg of perigee:   315.0988 deg
Mean anomaly:     166.9456 deg
Mean motion:    1.00266626 rev/day
Decay rate:   -3.4600E-006 rev/day^2
Epoch rev:            3963
Checksum:              286

Satellite: EUTELSAT 2-F4
Catalog number: 22028
Epoch time:      103044.39942538
Element set:     331 
Inclination:        1.7034 deg
RA of node:        92.5617 deg
Eccentricity:    0.0006121
Arg of perigee:   233.1956 deg
Mean anomaly:     308.7354 deg
Mean motion:    1.00271910 rev/day
Decay rate:   -9.4000E-007 rev/day^2
Epoch rev:            3172
Checksum:              261

Satellite: OSCAR 23 (KITS
Catalog number: 22077
Epoch time:      103044.51429948
Element set:     154 
Inclination:       66.0872 deg
RA of node:       136.3141 deg
Eccentricity:    0.0015528
Arg of perigee:   275.1186 deg
Mean anomaly:      84.8061 deg
Mean motion:   12.86408248 rev/day
Decay rate:   -3.7000E-007 rev/day^2
Epoch rev:           49365
Checksum:              309

Satellite: ASTRA 1C
Catalog number: 22653
Epoch time:      103042.07390899
Element set:     787 
Inclination:        0.0227 deg
RA of node:       240.3506 deg
Eccentricity:    0.0029782
Arg of perigee:   158.1575 deg
Mean anomaly:     147.7036 deg
Mean motion:    1.00272361 rev/day
Decay rate:    9.9999E-009 rev/day^2
Epoch rev:            3081
Checksum:              310

Satellite: METEOR 2-21
Catalog number: 22782
Epoch time:      103046.06325973
Element set:     518 
Inclination:       82.5460 deg
RA of node:       217.6723 deg
Eccentricity:    0.0022213
Arg of perigee:   359.4531 deg
Mean anomaly:       0.6613 deg
Mean motion:   13.83532039 rev/day
Decay rate:    5.5999E-007 rev/day^2
Epoch rev:           47760
Checksum:              311

Satellite: KITSAT B
Catalog number: 22825
Epoch time:      103046.88163416
Element set:     487 
Inclination:       98.2749 deg
RA of node:        76.7153 deg
Eccentricity:    0.0007471
Arg of perigee:   267.4616 deg
Mean anomaly:      92.5711 deg
Mean motion:   14.28942394 rev/day
Decay rate:    1.6699E-006 rev/day^2
Epoch rev:           48949
Checksum:              359

Satellite: POSAT 1
Catalog number: 22826
Epoch time:      103046.63228510
Element set:     309 
Inclination:       98.2763 deg
RA of node:        77.5934 deg
Eccentricity:    0.0008153
Arg of perigee:   270.9638 deg
Mean anomaly:      89.0610 deg
Mean motion:   14.29165101 rev/day
Decay rate:    1.8499E-006 rev/day^2
Epoch rev:           48950
Checksum:              321

Satellite: ITAMSAT
Catalog number: 22828
Epoch time:      103047.10327018
Element set:     426 
Inclination:       98.2715 deg
RA of node:        78.3037 deg
Eccentricity:    0.0009081
Arg of perigee:   244.3124 deg
Mean anomaly:     115.7121 deg
Mean motion:   14.29507500 rev/day
Decay rate:    1.5900E-006 rev/day^2
Epoch rev:           45777
Checksum:              386

Satellite: EYESAT A
Catalog number: 22829
Epoch time:      103047.11291079
Element set:     451 
Inclination:       98.2729 deg
RA of node:        78.9174 deg
Eccentricity:    0.0008893
Arg of perigee:   245.6487 deg
Mean anomaly:     114.3767 deg
Mean motion:   14.29767351 rev/day
Decay rate:    2.6200E-006 rev/day^2
Epoch rev:           48970
Checksum:              447

Satellite: METEOSAT 6
Catalog number: 22912
Epoch time:      103041.98342015
Element set:     675 
Inclination:        2.6574 deg
RA of node:        82.5051 deg
Eccentricity:    0.0000882
Arg of perigee:   234.1423 deg
Mean anomaly:     187.7120 deg
Mean motion:    1.00280377 rev/day
Decay rate:    7.4000E-007 rev/day^2
Epoch rev:            3222
Checksum:              253

Satellite: GOES 8
Catalog number: 23051
Epoch time:      103046.34152846
Element set:     606 
Inclination:        0.2891 deg
RA of node:       103.1916 deg
Eccentricity:    0.0001063
Arg of perigee:   305.9970 deg
Mean anomaly:     143.8407 deg
Mean motion:    1.00278406 rev/day
Decay rate:   -2.4900E-006 rev/day^2
Epoch rev:            3977
Checksum:              273

Satellite: ASTRA 1D
Catalog number: 23331
Epoch time:      103042.01107640
Element set:     814 
Inclination:        0.0641 deg
RA of node:       227.0953 deg
Eccentricity:    0.0003407
Arg of perigee:   116.2764 deg
Mean anomaly:     185.4062 deg
Mean motion:    1.00272529 rev/day
Decay rate:    1.4900E-006 rev/day^2
Epoch rev:            3079
Checksum:              236

Satellite: RADIO ROSTO
Catalog number: 23439
Epoch time:      103043.97207093
Element set:     684 
Inclination:       64.8157 deg
RA of node:        50.5320 deg
Eccentricity:    0.0146914
Arg of perigee:   116.2908 deg
Mean anomaly:     245.3192 deg
Mean motion:   11.27547725 rev/day
Decay rate:   -3.4999E-007 rev/day^2
Epoch rev:           33496
Checksum:              325

Satellite: NOAA 14
Catalog number: 23455
Epoch time:      103046.99630956
Element set:     523 
Inclination:       99.1872 deg
RA of node:        65.4981 deg
Eccentricity:    0.0008642
Arg of perigee:   234.9843 deg
Mean anomaly:     125.0538 deg
Mean motion:   14.13297315 rev/day
Decay rate:    2.4099E-006 rev/day^2
Epoch rev:           41911
Checksum:              332

Satellite: HIMAWARI 5 (GM
Catalog number: 23522
Epoch time:      103046.44794559
Element set:     102 
Inclination:        1.7603 deg
RA of node:        83.4033 deg
Eccentricity:    0.0001824
Arg of perigee:    14.2149 deg
Mean anomaly:     348.7163 deg
Mean motion:    1.00278891 rev/day
Decay rate:   -2.7900E-006 rev/day^2
Epoch rev:            2886
Checksum:              287

Satellite: HOT BIRD 1
Catalog number: 23537
Epoch time:      103044.99704955
Element set:     534 
Inclination:        0.0294 deg
RA of node:        58.1907 deg
Eccentricity:    0.0015353
Arg of perigee:   318.4019 deg
Mean anomaly:     138.8041 deg
Mean motion:    1.00273188 rev/day
Decay rate:    9.0999E-007 rev/day^2
Epoch rev:            2892
Checksum:              307

Satellite: GOES 9
Catalog number: 23581
Epoch time:      103044.38809957
Element set:     514 
Inclination:        0.2860 deg
RA of node:       277.7330 deg
Eccentricity:    0.0011864
Arg of perigee:   252.3085 deg
Mean anomaly:     320.0546 deg
Mean motion:    1.00055954 rev/day
Decay rate:    1.3799E-006 rev/day^2
Epoch rev:            2831
Checksum:              294

